Location: Unspecified
(44.6430°N, 0.0000°E)
Time: 04:04:28
(UTC+00:00)

Atlas Centaur 2 - Visible Passes

Search period start: 04 April 2026 00:00
Search period end: 14 April 2026 00:00
Orbit: 456 x 1248 km, 30.4° (Epoch: 29 March)

Date Brightness Start Highest point End Pass type
(mag) Time Alt. Az. Time Alt. Az. Time Alt. Az.
4 Apr 3.8 20:34:58 10° SW 20:40:47 27° S 20:41:40 26° S visible
4 Apr 5.0 22:23:06 10° WSW 22:23:34 11° WSW 22:23:34 11° WSW visible
5 Apr 3.9 20:20:47 10° SW 20:26:21 26° S 20:28:13 23° SSE visible
5 Apr 4.8 22:08:59 10° WSW 22:10:06 13° SW 22:10:06 13° SW visible
6 Apr 3.9 20:06:38 10° SW 20:11:56 25° S 20:14:43 20° SSE visible
6 Apr 4.7 21:54:56 10° WSW 21:56:37 14° SW 21:56:37 14° SW visible
7 Apr 4.0 19:52:33 10° SW 19:57:32 23° S 20:01:12 16° SSE visible
7 Apr 4.6 21:40:59 10° SW 21:43:06 15° SW 21:43:06 15° SW visible
8 Apr 4.0 19:38:30 10° SW 19:43:10 22° S 19:47:41 12° SE visible
8 Apr 4.6 21:27:09 10° SW 21:29:34 14° SSW 21:29:34 14° SSW visible
9 Apr 4.1 19:24:30 10° SW 19:28:48 20° S 19:33:41 10° SE visible
9 Apr 4.6 21:13:31 10° SW 21:16:03 13° SSW 21:16:03 13° SSW visible
10 Apr 4.1 19:10:33 10° SW 19:14:27 18° S 19:18:53 10° SE visible
10 Apr 4.7 21:00:20 10° SW 21:01:59 11° SSW 21:02:32 11° SSW visible
